Location: Kalberh�ni
(46.4610°N, 7.2453°E)
Time: 06:32:03
(UTC+00:00)

Cosmos 1606 Rocket - Pass Details

Date: 20 October 2021
Orbit: 601 x 633 km, 82.5° (Epoch: 30 November)

Event Time Altitude Azimuth Distance (km) Brightness Sun altitude
Rises 05:14:36 0° 3° (N) 2,920 7.0 -7.7°
Reaches altitude 10° 05:17:20 10° 19° (NNE) 2,002 6.3 -7.3°
Maximum altitude 05:20:43 21° 69° (ENE) 1,397 6.3 -6.7°
Drops below altitude 10° 05:24:04 10° 119° (ESE) 1,975 7.5 -6.1°
Sets 05:26:43 0° 136° (SE) 2,868 8.0 -5.7°
